Location: Ballingbuur
(53.0000°N, 5.7667°E)
Time: 07:04:40
(UTC+00:00)

SJ 16-02 - Pass Details

Date: 29 November 2020
Orbit: 606 x 616 km, 75.0° (Epoch: 24 January)

Event Time Altitude Azimuth Distance (km) Brightness Sun altitude
Exits shadow 04:46:13 59° 211° (SSW) 718 1.4 -22.9°
Maximum altitude 04:47:03 85° 291° (WNW) 625 1.2 -22.7°
Drops below altitude 10° 04:51:31 10° 23° (NNE) 1,991 4.1 -22.1°
Sets 04:53:46 0° 24° (NNE) 2,901 5.0 -21.7°
